[[{"header":{"parameterUnit":"m.s-1","parameterCategory":1,"la1":30.2991,"la2":30.254,"lo1":-89.0895,"lo2":-89.0444,"dy":0.0017,"dx":0.0017,"nx":28,"ny":28,"refTime":"2025-03-15T21:00:00:Z","depth":0,"parameterNumber":2,"parameterNumberName":"U-component_of_WINDS"},"data":[0,0,0,0,0,0,0,0,0,0,0,0,0,0,0,0,0,0,0,0,0,0,0,0,0,0,0,0,0,0,0,0,0,0,0,0,0,0,0,0,0,0,0,0,0,0,0,0,0,0,0,0,0,0,0,0,0,0,2.715,2.715,0,2.7199,2.72,2.72,2.7165,2.7164,2.7162,2.7161,2.7211,2.7214,2.7216,0,0,0,0,0,0,0,0,0,0,0,0,0,2.7026,2.7028,2.715,2.715,2.7151,2.7199,2.72,2.72,2.7166,2.7164,2.7162,2.716,2.721,2.7213,2.7217,0,0,0,0,0,0,0,0,0,0,0,0,0,2.7078,2.7029,2.715,2.7139,2.7139,2.7199,2.72,2.7201,2.7166,2.7164,2.7161,2.7159,2.7209,2.7213,2.7217,2.7289,0,0,2.723,2.7232,0,0,0,0,0,0,0,0,2.7075,2.7082,2.714,2.714,2.714,2.7174,2.7174,2.723,2.7167,2.7156,2.7161,2.7158,2.72,2.7205,2.7219,2.7292,2.7294,2.723,2.7233,2.7234,2.7236,0,0,0,0,0,0,0,2.7071,2.708,2.7169,2.7141,2.7141,2.7133,2.7137,2.7185,2.7191,2.7157,2.7154,2.7161,2.72,2.7215,2.722,2.7295,2.723,2.7234,2.7236,2.7238,2.743,2.7433,0,0,0,0,0,0,2.7069,2.7077,2.7168,2.7171,2.7101,2.7137,2.7142,2.7165,2.719,2.7191,2.7162,2.7159,2.721,2.7216,2.7222,2.7309,2.7234,2.7238,2.7241,2.7428,2.7431,2.7434,0,0,0,0,0,0,2.7066,2.7077,2.7166,2.7123,2.7134,2.7141,2.7168,2.7167,2.7183,2.7194,2.7195,2.7177,2.7208,2.7216,2.7273,2.731,2.724,2.7244,2.7425,2.7429,2.7432,2.7483,0,0,0,0,0,0,2.7063,2.7076,2.7104,2.7124,2.7136,2.7216,2.717,2.717,2.719,2.7186,2.7209,2.721,2.7207,2.7267,2.7277,2.7315,2.7247,2.7421,2.7426,2.7431,2.7478,2.7488,2.7497,0,0,0,0,0,2.7058,2.7116,2.7105,2.7116,2.7171,2.7218,2.7225,2.722,2.7194,2.7221,2.7229,2.7209,2.7305,2.7273,2.7284,2.7324,2.7419,2.7425,2.7431,2.7474,2.7486,2.7497,0,0,0,0,0,0,2.7099,2.7118,2.7107,2.7172,2.7194,2.7212,2.7247,2.7233,2.7263,2.7257,2.725,2.7255,2.7315,2.7325,2.729,2.7396,2.7358,2.7366,2.7387,2.7399,2.7408,2.7404,2.7251,0,0,0,0,0,2.7115,2.7152,2.7167,2.7224,2.7235,2.724,2.726,2.7254,2.7276,2.7285,2.7297,2.7319,2.7354,2.7377,2.7409,2.748,2.7485,2.7512,2.7522,2.753,2.7537,2.7576,2.7588,2.7453,2.7453,2.7453,0,0,2.715,2.7165,2.7188,2.7232,2.7248,2.7287,2.7247,2.7289,2.7318,2.7291,2.7346,2.7356,2.738,2.7444,2.7473,2.7454,2.7576,2.7537,2.7543,2.7546,2.7583,2.7596,2.7607,2.7457,2.7456,2.7455,0,0,2.7232,2.7247,2.7296,2.7314,2.7339,2.7342,2.7354,2.7374,2.738,2.7435,2.7416,2.745,2.751,2.7529,2.7546,2.7638,2.7621,2.7649,2.7697,2.7736,2.7746,2.7756,2.7789,2.7801,2.7656,2.7656,2.7656,0,2.7271,2.7329,2.7323,2.7368,2.7388,2.7366,2.7416,2.7433,2.7468,2.7482,2.7461,2.7537,2.7552,2.7621,2.7643,2.7658,2.7671,2.7645,2.7745,2.7755,2.7763,2.7795,2.7807,2.7659,2.7659,2.7658,2.7658,0,2.7377,2.7417,2.7454,2.7488,2.7513,2.7559,2.7561,2.7587,2.758,2.7585,2.7642,2.7659,2.7695,2.7712,2.7705,2.778,2.7768,2.7746,2.7707,2.778,2.7809,2.7821,2.7664,2.7662,2.7662,2.7661,0,0,2.7484,2.7517,2.753,2.7546,2.7573,2.7604,2.7651,2.7687,2.7709,2.7734,2.7773,2.7825,2.7806,2.7826,2.7821,2.7855,2.7927,2.7829,2.7829,2.7847,2.8012,2.8028,2.8042,2.7917,2.7919,2.7921,2.801,0,2.7568,2.7649,2.7646,2.7722,2.776,2.7741,2.7781,2.7803,2.7809,2.7842,2.7849,2.7887,2.7858,2.787,2.7903,2.7911,2.796,2.7905,2.7953,2.7955,2.7947,2.8057,2.8074,2.8157,2.8021,2.8023,2.8025,0,2.7677,2.7706,2.7786,2.7809,2.7824,2.7861,2.7894,2.7926,2.795,2.7953,2.7976,2.7966,2.8014,2.7975,2.8041,2.8003,2.8023,2.8031,2.8034,2.8038,2.7994,2.8064,2.8183,2.8196,2.8043,2.8041,2.804,0,2.7748,2.7808,2.7863,2.7877,2.7905,2.7932,2.7944,2.7966,2.7989,2.8018,2.8033,2.8067,2.8086,2.8114,2.8114,2.8085,2.8181,2.8142,2.8185,2.8185,2.8205,2.8204,2.8329,2.8218,2.8218,2.8218,2.8217,0,2.7842,2.7891,2.7896,2.793,2.7985,2.7982,2.8037,2.8047,2.8067,2.8103,2.8089,2.8123,2.8122,2.8157,2.8157,2.8212,2.8221,2.8225,2.8224,2.8226,2.8225,2.8238,2.8232,2.8221,2.822,2.822,2.8219,0,2.793,2.7935,2.7994,2.8016,2.8023,2.8063,2.8082,2.8115,2.8121,2.8167,2.8177,2.8187,2.8227,2.8231,2.8278,2.8278,2.8345,2.8338,2.8337,2.8335,2.8378,2.8374,2.8516,2.8535,2.8412,2.8413,2.8414,0,2.799,2.8027,2.8054,2.8077,2.8092,2.813,2.8153,2.8152,2.8176,2.8208,2.8237,2.8276,2.8308,2.8374,2.8385,2.8421,2.8415,2.8462,2.842,2.8421,2.8416,2.8414,2.8418,2.847,2.8472,2.8473,2.8474,0,2.8095,2.8096,2.8129,2.8165,2.8193,2.8221,2.8246,2.8267,2.8269,2.8297,2.8339,2.8363,2.8412,2.8452,2.8487,2.8501,2.8488,2.8487,2.8499,2.8501,2.8499,2.8501,2.8359,2.8484,2.8483,2.8482,2.8481,2.8481,2.817,2.8204,2.8228,2.8266,2.8286,2.8311,2.8343,2.8354,2.8388,2.8428,2.8425,2.8472,2.8496,2.8543,2.856,2.8596,2.858,2.8597,2.8602,2.8606,2.861,2.8493,2.8603,2.8602,2.8602,2.8602,2.8602,0,2.8275,2.829,2.8326,2.8363,2.8394,2.8379,2.8408,2.8434,2.8475,2.85,2.8531,2.858,2.8619,2.8633,2.8671,2.8698,2.8693,2.8708,2.8706,2.8709,2.8622,2.8608,2.8711,2.8711,2.8711,2.8711,2.8711,2.8711,2.8333,2.8389,2.8393,2.8458,2.8473,2.8519,2.8536,2.8559,2.8579,2.8634,2.8666,2.8676,2.8696,2.8736,2.8771,2.8775,2.8789,2.8807,2.8808,2.8726,2.8715,2.8705,2.8691,2.881,2.881,2.8892,2.8893,2.8893]},{"header":{"parameterUnit":"m.s-1","parameterCategory":1,"la1":30.2991,"la2":30.254,"lo1":-89.0895,"lo2":-89.0444,"dy":0.0017,"dx":0.0017,"nx":28,"ny":28,"refTime":"2025-03-15T21:00:00:Z","depth":0,"parameterNumber":3,"parameterNumberName":"V-component_of_WINDS"},"data":[0,0,0,0,0,0,0,0,0,0,0,0,0,0,0,0,0,0,0,0,0,0,0,0,0,0,0,0,0,0,0,0,0,0,0,0,0,0,0,0,0,0,0,0,0,0,0,0,0,0,0,0,0,0,0,0,0,0,-5.8514,-5.8517,0,-5.8784,-5.8787,-5.879,-5.8771,-5.8767,-5.8763,-5.8759,-5.9035,-5.9046,-5.9057,0,0,0,0,0,0,0,0,0,0,0,0,0,-5.7985,-5.7995,-5.8514,-5.8517,-5.8521,-5.8783,-5.8787,-5.879,-5.8771,-5.8766,-5.8761,-5.8757,-5.9032,-5.9045,-5.9058,0,0,0,0,0,0,0,0,0,0,0,0,0,-5.8231,-5.7998,-5.8514,-5.8543,-5.8548,-5.8782,-5.8787,-5.8791,-5.8772,-5.8766,-5.876,-5.8755,-5.9027,-5.9043,-5.906,-5.9282,0,0,-5.9111,-5.9118,0,0,0,0,0,0,0,0,-5.8217,-5.825,-5.8535,-5.8541,-5.8548,-5.8737,-5.8702,-5.8956,-5.8774,-5.8687,-5.8759,-5.8752,-5.8941,-5.8964,-5.9028,-5.9295,-5.9307,-5.9112,-5.9122,-5.9129,-5.9134,0,0,0,0,0,0,0,-5.82,-5.8239,-5.8621,-5.8539,-5.8547,-5.8543,-5.8571,-5.875,-5.8844,-5.8694,-5.8694,-5.8726,-5.8943,-5.9012,-5.9034,-5.9311,-5.9112,-5.9126,-5.9137,-5.9143,-5.9778,-5.9784,0,0,0,0,0,0,-5.8176,-5.8224,-5.8612,-5.8629,-5.8364,-5.8558,-5.8589,-5.8682,-5.8842,-5.8861,-5.873,-5.8724,-5.8987,-5.9015,-5.9044,-5.9318,-5.9129,-5.9145,-5.9154,-5.9771,-5.9779,-5.9787,0,0,0,0,0,0,-5.8165,-5.8211,-5.8601,-5.8427,-5.8476,-5.8573,-5.8678,-5.8691,-5.876,-5.887,-5.8887,-5.8783,-5.8983,-5.9021,-5.9224,-5.9327,-5.9152,-5.9167,-5.9763,-5.9773,-5.9783,-5.9865,0,0,0,0,0,0,-5.815,-5.8207,-5.8292,-5.8429,-5.8485,-5.8777,-5.8684,-5.8701,-5.8788,-5.8782,-5.8924,-5.8942,-5.8981,-5.9199,-5.924,-5.9347,-5.918,-5.9754,-5.9767,-5.978,-5.9854,-5.9877,-5.9897,0,0,0,0,0,-5.8131,-5.8304,-5.8296,-5.8343,-5.8594,-5.8782,-5.8815,-5.8857,-5.8797,-5.8884,-5.8955,-5.8937,-5.9308,-5.922,-5.9266,-5.9379,-5.9748,-5.9764,-5.9779,-5.9844,-5.9872,-5.9896,0,0,0,0,0,0,-5.8177,-5.8322,-5.8316,-5.8538,-5.8648,-5.8779,-5.889,-5.8885,-5.9015,-5.9003,-5.905,-5.9082,-5.9287,-5.9353,-5.9252,-5.9604,-5.952,-5.9546,-5.9554,-5.9582,-5.9603,-5.9584,-5.9194,0,0,0,0,0,-5.8213,-5.8353,-5.8473,-5.8658,-5.8713,-5.8792,-5.8876,-5.8898,-5.9014,-5.9061,-5.9147,-5.926,-5.9403,-5.9495,-5.9632,-5.9862,-5.9894,-5.9963,-5.9984,-6.0001,-6.0024,-6.0153,-6.0185,-5.9837,-5.9837,-5.9837,0,0,-5.8289,-5.8385,-5.8471,-5.8669,-5.8757,-5.8903,-5.8831,-5.8988,-5.9097,-5.9085,-5.9283,-5.935,-5.9479,-5.9698,-5.9798,-5.9759,-6.0126,-6.0021,-6.0034,-6.0047,-6.0172,-6.0205,-6.0234,-5.9848,-5.9846,-5.9844,0,0,-5.8502,-5.8588,-5.8753,-5.8843,-5.8977,-5.9028,-5.9068,-5.92,-5.9244,-5.9444,-5.9438,-5.9568,-5.9812,-5.9906,-5.9985,-6.0235,-6.0225,-6.0278,-6.0392,-6.0517,-6.0545,-6.0569,-6.0661,-6.0693,-6.03,-6.03,-6.03,0,-5.8579,-5.8798,-5.8838,-5.8997,-5.9085,-5.9081,-5.9249,-5.9334,-5.9506,-5.9568,-5.9521,-5.9829,-5.9915,-6.0157,-6.0218,-6.0281,-6.033,-6.0263,-6.0537,-6.0562,-6.0586,-6.0674,-6.0708,-6.0306,-6.0305,-6.0304,-6.0304,0,-5.8888,-5.904,-5.9157,-5.9324,-5.9425,-5.9587,-5.9653,-5.9751,-5.9765,-5.9821,-6.0025,-6.0129,-6.0289,-6.0347,-6.0362,-6.0592,-6.0564,-6.0527,-6.0444,-6.0624,-6.0708,-6.0742,-6.0314,-6.0312,-6.031,-6.0309,0,0,-5.9139,-5.9326,-5.9369,-5.9446,-5.9594,-5.9712,-5.9875,-6.0031,-6.0115,-6.0233,-6.0373,-6.0579,-6.0547,-6.0637,-6.0663,-6.0772,-6.0967,-6.0723,-6.0726,-6.0767,-6.123,-6.1258,-6.1296,-6.096,-6.0967,-6.0972,-6.1219,0,-5.9369,-5.9657,-5.9699,-5.9954,-6.0096,-6.0094,-6.0236,-6.0343,-6.0401,-6.053,-6.0593,-6.0741,-6.0685,-6.074,-6.0848,-6.092,-6.1061,-6.0903,-6.1092,-6.1098,-6.1062,-6.134,-6.137,-6.1599,-6.1252,-6.1258,-6.1262,0,-5.9676,-5.9804,-6.0074,-6.0204,-6.0266,-6.0393,-6.054,-6.0663,-6.0785,-6.0819,-6.092,-6.0933,-6.1103,-6.1011,-6.1247,-6.1139,-6.1218,-6.1265,-6.1275,-6.1296,-6.1192,-6.1371,-6.1672,-6.1708,-6.1313,-6.1309,-6.1305,0,-5.9835,-6.0074,-6.0267,-6.0333,-6.0489,-6.0579,-6.0649,-6.0764,-6.0856,-6.0984,-6.1045,-6.1191,-6.1272,-6.1386,-6.1438,-6.1366,-6.1672,-6.1583,-6.1707,-6.1706,-6.1773,-6.1768,-6.2094,-6.182,-6.1819,-6.1819,-6.1818,0,-6.0089,-6.0255,-6.0341,-6.046,-6.0646,-6.0692,-6.0876,-6.0942,-6.1045,-6.1178,-6.1185,-6.1309,-6.1369,-6.1504,-6.1545,-6.1736,-6.1771,-6.1805,-6.1815,-6.1806,-6.1803,-6.1861,-6.1847,-6.1828,-6.1826,-6.1824,-6.1822,0,-6.0299,-6.0363,-6.0574,-6.0705,-6.0742,-6.0874,-6.0986,-6.1103,-6.1159,-6.1327,-6.1369,-6.1458,-6.1616,-6.1679,-6.1872,-6.19,-6.2121,-6.2117,-6.208,-6.2084,-6.2204,-6.2193,-6.2581,-6.2636,-6.2323,-6.2326,-6.2328,0,-6.0458,-6.0586,-6.0731,-6.082,-6.0893,-6.1036,-6.113,-6.1181,-6.1278,-6.1427,-6.1526,-6.1684,-6.1814,-6.2067,-6.2149,-6.2298,-6.2299,-6.2425,-6.2321,-6.231,-6.2304,-6.2297,-6.2311,-6.2444,-6.2447,-6.245,-6.2452,0,-6.0735,-6.076,-6.0895,-6.1043,-6.1154,-6.1273,-6.1387,-6.146,-6.1528,-6.1638,-6.18,-6.1901,-6.2099,-6.2257,-6.241,-6.2482,-6.248,-6.2484,-6.2521,-6.2515,-6.2489,-6.2507,-6.2135,-6.2475,-6.2473,-6.2471,-6.247,-6.2469,-6.0926,-6.104,-6.1161,-6.1312,-6.1403,-6.1511,-6.1628,-6.1699,-6.1835,-6.2,-6.2021,-6.2196,-6.2316,-6.2522,-6.2601,-6.2739,-6.2706,-6.2759,-6.2773,-6.2786,-6.2795,-6.2465,-6.2766,-6.2766,-6.2765,-6.2765,-6.2764,0,-6.1205,-6.1283,-6.1421,-6.1582,-6.1701,-6.1687,-6.1815,-6.1916,-6.2069,-6.2181,-6.2308,-6.2496,-6.2649,-6.2744,-6.2899,-6.2991,-6.2994,-6.303,-6.3025,-6.3043,-6.2814,-6.2768,-6.3025,-6.3025,-6.3025,-6.3025,-6.3025,-6.3025,-6.1365,-6.1558,-6.1599,-6.1838,-6.1915,-6.2086,-6.216,-6.226,-6.235,-6.2559,-6.2687,-6.2747,-6.2854,-6.3016,-6.3157,-6.3181,-6.3238,-6.3278,-6.33,-6.3085,-6.3058,-6.3032,-6.299,-6.3289,-6.329,-6.3517,-6.3519,-6.3521]}]]